IU2VCR-15 Weather Reports


time (UTC)temp
C
wind
direction
speed
KPH
gust
KPH
rain 1hr
cm
rain 24hr
cm
rain mn
cm
humidity
%
barometer
mb
20260905025235 21 29 6.4 6.4 0.00 0.00 0.00 68 1016.3
20260905024232 21 20 3.2 4.8 0.00 0.00 0.00 68 1016.2
20260905023229 21 1 1.6 1.6 0.00 0.00 0.00 68 1016.6
20260905022224 21 34 0.0 3.2 0.00 0.00 0.00 67 1016.6
20260905021220 21 0 1.6 3.2 0.00 0.00 0.00 66 1016.6
20260905020215 21 65 0.0 1.6 0.00 0.00 0.00 65 1016.7
20260905015214 21 41 0.0 0.0 0.00 0.00 0.00 64 1016.8
20260905014210 21 18 3.2 4.8 0.00 0.00 0.00 63 1016.9
20260905012202 21 37 1.6 1.6 0.00 0.00 0.00 61 1016.8
20260905011200 21 358 0.0 1.6 0.00 0.00 0.00 62 1016.7
20260905010158 22 8 0.0 1.6 0.00 0.00 0.00 60 1016.7
20260905005152 22 358 1.6 1.6 0.00 0.00 0.00 63 1016.6
20260905004146 22 359 1.6 1.6 0.00 0.00 0.00 62 1016.9
20260905003142 22 60 1.6 1.6 0.00 0.00 0.00 62 1016.9
20260905002139 22 26 1.6 3.2 0.00 0.00 0.00 64 1017.0
20260905001136 22 38 1.6 1.6 0.00 0.00 0.00 64 1017.0
20260905000130 22 35 3.2 3.2 0.00 0.00 0.00 65 1017.5
20260904235125 22 20 1.6 3.2 0.00 0.00 0.00 64 1017.4
20260904234122 22 10 1.6 3.2 0.00 0.00 0.00 62 1017.4
20260904233117 22 17 3.2 3.2 0.00 0.00 0.00 63 1017.5
20260904232113 22 15 0.0 1.6 0.00 0.00 0.00 63 1017.5
20260904231108 22 25 0.0 1.6 0.00 0.00 0.00 63 1017.4
20260904230107 22 56 0.0 0.0 0.00 0.00 0.00 62 1017.5
20260904225101 23 344 1.6 1.6 0.00 0.00 0.00 60 1017.6
20260904224059 23 48 0.0 0.0 0.00 0.00 0.00 61 1017.6
20260904223058 23 24 1.6 1.6 0.00 0.00 0.00 60 1017.4
20260904222053 23 352 0.0 1.6 0.00 0.00 0.00 60 1017.6
20260904221048 23 166 0.0 0.0 0.00 0.00 0.00 60 1017.7
20260904220043 24 340 1.6 1.6 0.00 0.00 0.00 59 1017.7
20260904215042 24 34 0.0 1.6 0.00 0.00 0.00 56 1017.8
20260904214040 25 18 0.0 1.6 0.00 0.00 0.00 55 1017.9
20260904213035 25 15 0.0 1.6 0.00 0.00 0.00 52 1017.6
20260904212030 25 359 3.2 3.2 0.00 0.00 0.00 50 1018.0
20260904211030 25 29 3.2 3.2 0.00 0.00 0.00 48 1017.9
20260904210025 26 24 1.6 3.2 0.00 0.00 0.00 47 1017.7
20260904205023 26 21 1.6 3.2 0.00 0.00 0.00 46 1017.8
20260904204017 26 353 1.6 1.6 0.00 0.00 0.00 43 1017.9
20260904203013 26 0 1.6 3.2 0.00 0.00 0.00 44 1018.1
20260904202010 26 15 1.6 3.2 0.00 0.00 0.00 46 1017.9
20260904201007 26 11 1.6 4.8 0.00 0.00 0.00 43 1017.9
20260904200003 26 0 1.6 3.2 0.00 0.00 0.00 46 1017.9
20260904195000 26 15 3.2 3.2 0.00 0.00 0.00 49 1017.9
20260904193956 26 6 1.6 3.2 0.00 0.00 0.00 47 1017.7
20260904192950 27 2 1.6 3.2 0.00 0.00 0.00 52 1017.8
20260904191945 27 12 3.2 3.2 0.00 0.00 0.00 55 1017.9
20260904190943 27 16 4.8 4.8 0.00 0.00 0.00 57 1017.6
20260904185940 27 351 1.6 3.2 0.00 0.00 0.00 54 1017.7
20260904184935 28 8 3.2 3.2 0.00 0.00 0.00 52 1017.6
20260904183933 28 11 3.2 3.2 0.00 0.00 0.00 50 1017.4
20260904182927 29 18 3.2 3.2 0.00 0.00 0.00 49 1017.4
20260904181922 29 9 3.2 3.2 0.00 0.00 0.00 48 1017.3
20260904180918 30 20 3.2 3.2 0.00 0.00 0.00 46 1017.5
20260904175914 30 12 3.2 3.2 0.00 0.00 0.00 43 1017.3
20260904174908 31 21 3.2 3.2 0.00 0.00 0.00 41 1017.2
20260904173905 31 22 3.2 3.2 0.00 0.00 0.00 38 1017.0
20260904172900 32 16 3.2 4.8 0.00 0.00 0.00 36 1016.9
20260904171854 32 8 1.6 3.2 0.00 0.00 0.00 34 1016.8
20260904170850 33 7 1.6 3.2 0.00 0.00 0.00 33 1017.0
20260904165847 33 16 3.2 3.2 0.00 0.00 0.00 33 1016.8
20260904164842 33 57 0.0 1.6 0.00 0.00 0.00 32 1017.0
20260904163836 33 9 3.2 3.2 0.00 0.00 0.00 33 1016.9
20260904162830 33 12 4.8 4.8 0.00 0.00 0.00 33 1017.0
20260904161827 34 16 3.2 4.8 0.00 0.00 0.00 32 1017.2
20260904160823 35 15 1.6 3.2 0.00 0.00 0.00 31 1016.8
20260904155822 35 22 6.4 6.4 0.00 0.00 0.00 31 1017.0
20260904154818 35 1 3.2 4.8 0.00 0.00 0.00 32 1017.1
20260904153815 34 2 3.2 3.2 0.00 0.00 0.00 32 1017.4
20260904152810 35 7 3.2 4.8 0.00 0.00 0.00 31 1017.3
20260904151805 34 2 1.6 3.2 0.00 0.00 0.00 33 1017.2
20260904150801 35 4 3.2 3.2 0.00 0.00 0.00 32 1017.4
20260904145756 35 326 1.6 3.2 0.00 0.00 0.00 31 1017.7
20260904144753 35 9 3.2 3.2 0.00 0.00 0.00 33 1017.6
20260904143751 35 5 3.2 3.2 0.00 0.00 0.00 32 1017.7
20260904142750 33 356 3.2 3.2 0.00 0.00 0.00 35 1017.8
20260904141748 34 1 3.2 3.2 0.00 0.00 0.00 35 1017.7
20260904140745 35 8 6.4 8.0 0.00 0.00 0.00 34 1017.8
20260904135739 34 354 3.2 3.2 0.00 0.00 0.00 34 1017.8
20260904134733 34 31 3.2 3.2 0.00 0.00 0.00 34 1017.8
20260904133729 34 8 3.2 4.8 0.00 0.00 0.00 34 1017.9
20260904132723 34 41 1.6 3.2 0.00 0.00 0.00 34 1018.0
20260904131719 33 39 0.0 3.2 0.00 0.00 0.00 35 1018.2
20260904130714 33 53 1.6 3.2 0.00 0.00 0.00 36 1018.2
20260904125713 33 31 4.8 4.8 0.00 0.00 0.00 36 1018.2
20260904124710 34 355 0.0 3.2 0.00 0.00 0.00 35 1018.4
20260904123706 33 15 4.8 4.8 0.00 0.00 0.00 37 1018.5
20260904122705 33 41 1.6 3.2 0.00 0.00 0.00 36 1018.8
20260904121702 33 287 0.0 3.2 0.00 0.00 0.00 35 1018.8
20260904120657 32 79 0.0 3.2 0.00 0.00 0.00 38 1018.9
20260904115655 31 347 0.0 3.2 0.00 0.00 0.00 40 1018.9
20260904114650 31 131 1.6 3.2 0.00 0.00 0.00 40 1019.0
20260904113645 31 6 1.6 4.8 0.00 0.00 0.00 42 1019.1
20260904112642 30 300 1.6 1.6 0.00 0.00 0.00 42 1019.4
20260904111640 30 13 3.2 3.2 0.00 0.00 0.00 43 1019.4
20260904110638 30 0 3.2 3.2 0.00 0.00 0.00 46 1019.5
20260904105633 29 21 0.0 3.2 0.00 0.00 0.00 45 1019.5
20260904104629 29 9 3.2 3.2 0.00 0.00 0.00 46 1019.6
20260904103623 28 19 3.2 3.2 0.00 0.00 0.00 46 1019.9
20260904102617 28 17 3.2 3.2 0.00 0.00 0.00 47 1019.8
20260904101616 28 21 0.0 3.2 0.00 0.00 0.00 48 1020.1
20260904100609 28 21 1.6 3.2 0.00 0.00 0.00 48 1020.0
20260904095605 27 18 3.2 3.2 0.00 0.00 0.00 52 1020.0
20260904094603 27 24 3.2 3.2 0.00 0.00 0.00 49 1020.4
20260904093559 27 312 0.0 1.6 0.00 0.00 0.00 49 1020.5
20260904092555 27 34 0.0 1.6 0.00 0.00 0.00 49 1020.6
20260904091550 27 356 1.6 3.2 0.00 0.00 0.00 51 1020.5
20260904090547 27 351 1.6 3.2 0.00 0.00 0.00 51 1020.5
20260904085545 28 51 0.0 0.0 0.00 0.00 0.00 49 1020.2
20260904084542 28 20 0.0 1.6 0.00 0.00 0.00 48 1020.1
20260904083538 28 357 1.6 3.2 0.00 0.00 0.00 48 1020.4
20260904082533 28 25 0.0 1.6 0.00 0.00 0.00 46 1020.4
20260904081528 27 7 3.2 3.2 0.00 0.00 0.00 49 1020.2
20260904080525 27 11 1.6 3.2 0.00 0.00 0.00 49 1020.1
20260904075523 27 256 0.0 3.2 0.00 0.00 0.00 49 1020.2
20260904074519 27 4 1.6 3.2 0.00 0.00 0.00 50 1020.4
20260904073514 26 354 1.6 1.6 0.00 0.00 0.00 55 1019.9
20260904072512 24 51 0.0 1.6 0.00 0.00 0.00 59 1020.1
20260904071507 23 30 0.0 0.0 0.00 0.00 0.00 61 1020.1
20260904070504 23 67 0.0 1.6 0.00 0.00 0.00 63 1020.1
20260904065501 22 34 0.0 0.0 0.00 0.00 0.00 63 1020.0
20260904064457 22 11 0.0 1.6 0.00 0.00 0.00 65 1019.9
20260904063453 21 11 1.6 1.6 0.00 0.00 0.00 67 1019.9
20260904062448 21 40 1.6 1.6 0.00 0.00 0.00 68 1020.0
20260904061444 21 24 0.0 3.2 0.00 0.00 0.00 69 1020.2
20260904060439 20 12 1.6 1.6 0.00 0.00 0.00 70 1019.9
20260904055433 20 18 3.2 3.2 0.00 0.00 0.00 70 1019.9
20260904054430 20 36 1.6 3.2 0.00 0.00 0.00 72 1019.8
20260904053428 20 8 1.6 3.2 0.00 0.00 0.00 72 1019.9
20260904052426 20 6 1.6 3.2 0.00 0.00 0.00 72 1019.8
20260904051420 20 8 1.6 3.2 0.00 0.00 0.00 73 1019.6
20260904050418 20 4 4.8 4.8 0.00 0.00 0.00 71 1019.7
20260904045412 20 43 3.2 3.2 0.00 0.00 0.00 72 1019.5
20260904044409 20 5 1.6 1.6 0.00 0.00 0.00 75 1019.3
20260904043404 20 3 1.6 1.6 0.00 0.00 0.00 75 1019.3
20260904042359 20 29 1.6 3.2 0.00 0.00 0.00 73 1019.3
20260904041353 20 11 1.6 3.2 0.00 0.00 0.00 74 1019.3
20260904040347 20 22 3.2 3.2 0.00 0.00 0.00 73 1019.1
20260904035345 20 13 3.2 3.2 0.00 0.00 0.00 73 1019.3
20260904034339 20 12 0.0 0.0 0.00 0.00 0.00 73 1019.2
20260904033334 20 38 0.0 1.6 0.00 0.00 0.00 72 1019.2
20260904032334 20 26 3.2 3.2 0.00 0.00 0.00 71 1019.2
20260904031332 20 35 3.2 3.2 0.00 0.00 0.00 71 1019.1
20260904030330 20 34 0.0 3.2 0.00 0.00 0.00 72 1019.0